Laramie, WY

1:31 AM MDT on March 26, 2017 (GMT -0600)
Laramie Regional

Weather History for KLAR - January, 2012

Change the Weather History Date:

Thursday, January 26, 2012

  Actual Average Record
Temperature  
Mean Temperature 34 °F 22 °F  
Max Temperature 46 °F 33 °F 60 °F (2015)
Min Temperature 21 °F 10 °F -27 °F (1996)
Degree Days  
Heating Degree Days 31 43  
Month to date heating degree days 992 1119  
Since 1 July heating degree days 4655 4792  
Cooling Degree Days 0 0  
Month to date cooling degree days 0 0  
Year to date cooling degree days 0 0  
Moisture  
Dew Point 20 °F    
Average Humidity 53    
Maximum Humidity 78    
Minimum Humidity 27    
Precipitation  
Precipitation T in 0.01 in 0.10 in (1959)
Month to date precipitation T 0.22  
Year to date precipitation T 0.22  
Sea Level Pressure  
Sea Level Pressure 29.89 in    
Wind  
Wind Speed 18 mph (WSW)    
Max Wind Speed 33 mph    
Max Gust Speed 40 mph    
Visibility 9 miles    
Events Snow    
T = Trace of Precipitation, MM = Missing Value Source: NWS Daily Summary

Daily Weather History Graph

Daily Weather History Graph

Search for Another Location

Airport or City:

Trip Planner

Search our weather history database for the weather conditions in past years. The results will help you decide how hot, cold, wet, or windy it might be!

Date:

Astronomy

Jan. 26, 2012 Rise Set
Actual Time 7:19 AM MST 5:11 PM MST
Civil Twilight 6:50 AM MST 5:40 PM MST
Nautical Twilight 6:16 AM MST 6:14 PM MST
Astronomical Twilight 5:43 AM MST 6:46 PM MST
Moon 8:45 AM MST 9:09 PM MST
Length of Visible Light 10h 50m
Length of Day
9h 51m
Waxing Crescent, 13% of the Moon is Illuminated
Jan 26
Waxing Crescent
Jan 30
First Quarter
Feb 7
Full
Feb 14
Last Quarter
Feb 21
New

Hourly Weather History & Observations

Time (MST) Temp. Windchill Dew Point Humidity Pressure Visibility Wind Dir Wind Speed Gust Speed Precip Events Conditions
12:53 AM 30.0 °F 15.7 °F 19.0 °F 64% 30.05 in 10.0 mi West 26.5 mph 33.4 mph N/A   Clear
1:53 AM 28.9 °F 14.3 °F 19.0 °F 67% 30.04 in 10.0 mi West 26.5 mph 33.4 mph N/A   Clear
2:53 AM 30.0 °F 16.3 °F 19.0 °F 64% 30.04 in 10.0 mi West 24.2 mph 34.5 mph N/A   Clear
3:53 AM 28.0 °F 14.9 °F 19.0 °F 69% 30.08 in 10.0 mi WNW 19.6 mph - N/A   Clear
4:53 AM 26.6 °F 15.2 °F 17.6 °F 69% 30.10 in 10.0 mi West 13.8 mph - N/A   Clear
5:53 AM 28.0 °F - 17.1 °F 63% 30.12 in 10.0 mi Calm Calm - N/A   Clear
6:53 AM 28.4 °F 18.0 °F 15.8 °F 59% 30.11 in 10.0 mi NW 12.7 mph 19.6 mph N/A   Clear
7:53 AM 26.1 °F 15.6 °F 18.0 °F 71% 30.11 in 10.0 mi SW 11.5 mph - N/A   Clear
8:53 AM 32.0 °F 23.0 °F 19.0 °F 59% 30.03 in 10.0 mi SSW 11.5 mph - N/A   Clear
9:53 AM 37.0 °F 28.9 °F 16.0 °F 42% 30.00 in 10.0 mi WSW 12.7 mph - N/A   Clear
10:53 AM 41.0 °F 30.7 °F 14.0 °F 33% 29.93 in 10.0 mi West 25.3 mph 34.5 mph N/A   Clear
11:53 AM 44.1 °F 35.2 °F 12.0 °F 27% 29.88 in 10.0 mi WSW 23.0 mph 38.0 mph N/A   Clear
12:53 PM 45.0 °F 36.2 °F 12.9 °F 27% 29.81 in 10.0 mi WSW 24.2 mph 35.7 mph N/A   Clear
1:53 PM 43.0 °F 34.0 °F 12.9 °F 30% 29.80 in 10.0 mi West 21.9 mph - N/A   Mostly Cloudy
2:53 PM 43.0 °F 35.1 °F 16.0 °F 34% 29.78 in 10.0 mi WSW 17.3 mph 28.8 mph N/A   Overcast
3:53 PM 41.0 °F 31.9 °F 14.0 °F 33% 29.78 in 10.0 mi SW 19.6 mph 34.5 mph N/A   Overcast
4:53 PM 37.9 °F 27.9 °F 16.0 °F 41% 29.78 in 10.0 mi SW 19.6 mph 27.6 mph N/A   Overcast
5:53 PM 36.0 °F 24.2 °F 19.9 °F 52% 29.78 in 10.0 mi SW 24.2 mph 31.1 mph N/A   Overcast
6:40 PM 32.0 °F 19.8 °F 26.6 °F 80% 29.80 in 10.0 mi SW 20.7 mph - N/A   Overcast
6:53 PM 32.0 °F 20.5 °F 26.1 °F 79% 29.81 in 10.0 mi SW 18.4 mph 28.8 mph N/A   Overcast
7:07 PM 32.0 °F 21.2 °F 26.6 °F 80% 29.81 in 2.5 mi SW 16.1 mph - 0.00 in Snow Light Snow
7:37 PM 30.2 °F 21.9 °F 28.4 °F 93% 29.81 in 5.0 mi SSW 9.2 mph - 0.00 in Snow Light Snow
7:45 PM 30.2 °F 21.9 °F 28.4 °F 93% 29.80 in 6.0 mi SSW 9.2 mph - 0.00 in Snow Light Snow
7:53 PM 30.9 °F 22.8 °F 28.9 °F 92% 29.81 in 6.0 mi SSW 9.2 mph - 0.00 in Snow Light Snow
8:09 PM 30.2 °F 21.3 °F 28.4 °F 93% 29.79 in 6.0 mi SSW 10.4 mph - 0.00 in Snow Light Snow
8:53 PM 30.9 °F 18.7 °F 27.0 °F 85% 29.76 in 10.0 mi West 19.6 mph 25.3 mph 0.00 in   Mostly Cloudy
9:53 PM 30.9 °F 19.1 °F 24.1 °F 76% 29.75 in 10.0 mi WNW 18.4 mph 31.1 mph N/A   Clear
10:53 PM 30.0 °F 18.3 °F 21.9 °F 72% 29.73 in 10.0 mi WNW 17.3 mph - N/A   Clear
11:53 PM 28.9 °F 17.3 °F 21.9 °F 75% 29.74 in 10.0 mi West 16.1 mph - N/A   Clear